When you browse on this site, cookies collect data to enhance your experience and personalize the content and advertising you see.
Visit our Privacy Policy to learn more. By continuing to use the site, you agree to this use of cookies and data.
  • En España
  • Lista de países
  • Para 7 días
  • Temperatura del agua
  • El tiempo en el mapa
  • Informadores
  • user-avatar
    Iniciar sesión

    Tiempo cada hora San Fernando de Apure

    Hoy, 31 Mayo, Domingo

    Tiempo Temperatura Precipitaciones Viento Presión Humedad
    00:00 +25°C° 1.9 mm 1 mps 754 mmHg 97%
    01:00 +25°C° 1.9 mm 1 mps 754 mmHg 98%
    02:00 +23°C° 1.9 mm 0 mps 754 mmHg 98%
    03:00 +23°C° 1.4 mm 0 mps 754 mmHg 98%
    04:00 +23°C° 1.4 mm 0 mps 754 mmHg 98%
    05:00 +23°C° 1.4 mm 0 mps 754 mmHg 98%
    06:00 +23°C° 1.3 mm 0 mps 755 mmHg 98%
    07:00 +25°C° 1.3 mm 1 mps 755 mmHg 98%
    08:00 +25°C° 1.3 mm 1 mps 756 mmHg 98%
    09:00 +26°C° 2.6 mm 1 mps 756 mmHg 97%
    10:00 +26°C° 2.6 mm 2 mps 757 mmHg 96%
    11:00 +26°C° 2.6 mm 2 mps 757 mmHg 95%
    12:00 +26°C° 5.2 mm 2 mps 757 mmHg 96%
    13:00 +26°C° 5.2 mm 1 mps 756 mmHg 96%
    14:00 +26°C° 5.2 mm 1 mps 756 mmHg 96%
    15:00 +26°C° 0 mm 1 mps 755 mmHg 95%
    16:00 +26°C° 0 mm 1 mps 755 mmHg 94%
    17:00 +26°C° 0 mm 1 mps 754 mmHg 92%
    18:00 +26°C° 0 mm 1 mps 754 mmHg 94%
    19:00 +25°C° 0 mm 1 mps 754 mmHg 96%
    20:00 +25°C° 0 mm 1 mps 755 mmHg 97%
    21:00 +25°C° 0 mm 1 mps 755 mmHg 98%
    22:00 +25°C° 0 mm 1 mps 756 mmHg 98%
    23:00 +25°C° 0 mm 1 mps 756 mmHg 98%

    Mañana, 1 Junio, Lunes

    Tiempo Temperatura Precipitaciones Viento Presión Humedad
    00:00 +25°C° 0 mm 1 mps 756 mmHg 98%
    01:00 +22°C° 0 mm 0 mps 755 mmHg 98%
    02:00 +22°C° 0 mm 0 mps 755 mmHg 98%
    03:00 +22°C° 0.6 mm 0 mps 755 mmHg 98%
    04:00 +22°C° 0.6 mm 0 mps 755 mmHg 98%
    05:00 +22°C° 0.6 mm 0 mps 755 mmHg 98%
    06:00 +22°C° 1.1 mm 0 mps 755 mmHg 98%
    07:00 +23°C° 1.1 mm 0 mps 755 mmHg 97%
    08:00 +23°C° 1.1 mm 0 mps 756 mmHg 96%
    09:00 +27°C° 0 mm 1 mps 756 mmHg 91%
    10:00 +28°C° 0 mm 1 mps 756 mmHg 86%
    11:00 +30°C° 0 mm 1 mps 756 mmHg 81%
    12:00 +31°C° 0.1 mm 1 mps 756 mmHg 77%
    13:00 +32°C° 0.1 mm 1 mps 755 mmHg 72%
    14:00 +34°C° 0.1 mm 2 mps 754 mmHg 67%
    15:00 +32°C° 0.8 mm 1 mps 753 mmHg 73%
    16:00 +31°C° 0.8 mm 1 mps 753 mmHg 78%
    17:00 +31°C° 0.8 mm 1 mps 752 mmHg 83%
    18:00 +29°C° 0.7 mm 1 mps 753 mmHg 86%
    19:00 +28°C° 0.7 mm 1 mps 753 mmHg 89%
    20:00 +27°C° 0.7 mm 1 mps 754 mmHg 92%
    21:00 +27°C° 0 mm 1 mps 754 mmHg 92%
    22:00 +24°C° 0 mm 0 mps 755 mmHg 92%
    23:00 +24°C° 0 mm 0 mps 755 mmHg 92%

    Pasado mañana, 2 Junio, Martes

    Tiempo Temperatura Precipitaciones Viento Presión Humedad
    00:00 +24°C° 0 mm 0 mps 755 mmHg 92%
    01:00 +26°C° 0 mm 1 mps 754 mmHg 93%
    02:00 +25°C° 0 mm 1 mps 754 mmHg 93%
    03:00 +25°C° 0 mm 1 mps 754 mmHg 94%
    04:00 +25°C° 0 mm 1 mps 754 mmHg 96%
    05:00 +25°C° 0 mm 1 mps 754 mmHg 97%
    06:00 +25°C° 0 mm 2 mps 754 mmHg 94%
    07:00 +26°C° 0 mm 2 mps 755 mmHg 92%
    08:00 +27°C° 0 mm 3 mps 755 mmHg 90%
    09:00 +28°C° 0 mm 3 mps 755 mmHg 83%
    10:00 +30°C° 0 mm 3 mps 755 mmHg 77%
    11:00 +31°C° 0 mm 3 mps 755 mmHg 70%
    12:00 +33°C° 0.1 mm 3 mps 755 mmHg 68%
    13:00 +33°C° 0.1 mm 3 mps 754 mmHg 65%
    14:00 +34°C° 0.1 mm 3 mps 753 mmHg 63%
    15:00 +34°C° 0.9 mm 2 mps 752 mmHg 68%
    16:00 +32°C° 0.9 mm 2 mps 752 mmHg 73%
    17:00 +32°C° 0.9 mm 2 mps 751 mmHg 77%
    18:00 +30°C° 0.1 mm 1 mps 752 mmHg 81%
    19:00 +29°C° 0.1 mm 1 mps 752 mmHg 85%
    20:00 +27°C° 0.1 mm 1 mps 752 mmHg 88%
    21:00 +27°C° 0 mm 1 mps 753 mmHg 89%
    22:00 +25°C° 0 mm 0 mps 753 mmHg 89%
    23:00 +25°C° 0 mm 0 mps 753 mmHg 89%

    3 Junio, Miércoles

    Tiempo Temperatura Precipitaciones Viento Presión Humedad
    00:00 +26°C° 0 mm 1 mps 753 mmHg 89%
    01:00 +26°C° 0 mm 1 mps 753 mmHg 90%
    02:00 +26°C° 0 mm 1 mps 752 mmHg 90%
    03:00 +26°C° 0 mm 1 mps 753 mmHg 90%
    04:00 +26°C° 0 mm 2 mps 753 mmHg 89%
    05:00 +25°C° 0 mm 2 mps 753 mmHg 89%
    06:00 +26°C° 0 mm 2 mps 753 mmHg 87%
    07:00 +27°C° 0 mm 3 mps 754 mmHg 85%
    08:00 +28°C° 0 mm 3 mps 755 mmHg 83%
    09:00 +29°C° 0 mm 4 mps 755 mmHg 77%
    10:00 +30°C° 0 mm 4 mps 755 mmHg 72%
    11:00 +33°C° 0 mm 4 mps 755 mmHg 66%
    12:00 +33°C° 0.3 mm 4 mps 754 mmHg 66%
    13:00 +34°C° 0.3 mm 3 mps 753 mmHg 66%
    14:00 +34°C° 0.3 mm 3 mps 752 mmHg 66%
    15:00 +34°C° 0 mm 3 mps 752 mmHg 67%
    16:00 +34°C° 0 mm 2 mps 751 mmHg 68%
    17:00 +34°C° 0 mm 2 mps 751 mmHg 69%
    18:00 +31°C° 0 mm 1 mps 751 mmHg 72%
    19:00 +30°C° 0 mm 1 mps 751 mmHg 75%
    20:00 +26°C° 0 mm 0 mps 752 mmHg 78%
    21:00 +26°C° 0 mm 0 mps 752 mmHg 78%
    22:00 +25°C° 0 mm 0 mps 753 mmHg 78%
    23:00 +25°C° 0 mm 0 mps 753 mmHg 78%

    4 Junio, Jueves

    Tiempo Temperatura Precipitaciones Viento Presión Humedad
    00:00 +27°C° 0 mm 1 mps 753 mmHg 79%
    01:00 +26°C° 0 mm 1 mps 752 mmHg 80%
    02:00 +26°C° 0 mm 2 mps 752 mmHg 81%
    03:00 +26°C° 0 mm 2 mps 752 mmHg 82%
    04:00 +25°C° 0 mm 2 mps 753 mmHg 82%
    05:00 +25°C° 0 mm 2 mps 753 mmHg 82%
    06:00 +26°C° 0 mm 3 mps 753 mmHg 81%
    07:00 +27°C° 0 mm 3 mps 754 mmHg 79%
    08:00 +27°C° 0 mm 4 mps 754 mmHg 78%
    09:00 +28°C° 0 mm 4 mps 755 mmHg 73%
    10:00 +30°C° 0 mm 4 mps 755 mmHg 68%
    11:00 +32°C° 0 mm 4 mps 755 mmHg 63%
    12:00 +33°C° 0 mm 3 mps 754 mmHg 62%
    13:00 +33°C° 0 mm 3 mps 753 mmHg 61%
    14:00 +34°C° 0 mm 3 mps 753 mmHg 61%
    15:00 +34°C° 0 mm 2 mps 752 mmHg 63%
    16:00 +34°C° 0 mm 2 mps 752 mmHg 65%
    17:00 +33°C° 0 mm 1 mps 751 mmHg 67%
    18:00 +31°C° 0 mm 1 mps 752 mmHg 71%
    19:00 +30°C° 0 mm 1 mps 752 mmHg 74%
    20:00 +26°C° 0 mm 0 mps 753 mmHg 78%
    21:00 +28°C° 0 mm 1 mps 753 mmHg 78%
    22:00 +27°C° 0 mm 1 mps 753 mmHg 78%
    23:00 +27°C° 0 mm 1 mps 754 mmHg 78%

    5 Junio, Viernes

    Tiempo Temperatura Precipitaciones Viento Presión Humedad
    00:00 +27°C° 0 mm 1 mps 754 mmHg 78%
    01:00 +27°C° 0 mm 1 mps 754 mmHg 78%
    02:00 +26°C° 0 mm 2 mps 753 mmHg 78%
    03:00 +26°C° 0.1 mm 2 mps 753 mmHg 79%
    04:00 +26°C° 0.1 mm 2 mps 754 mmHg 80%
    05:00 +25°C° 0.1 mm 2 mps 754 mmHg 82%
    06:00 +26°C° 0 mm 2 mps 754 mmHg 82%
    07:00 +26°C° 0 mm 2 mps 755 mmHg 83%
    08:00 +27°C° 0 mm 2 mps 755 mmHg 84%
    09:00 +29°C° 0 mm 2 mps 755 mmHg 78%
    10:00 +30°C° 0 mm 3 mps 756 mmHg 72%
    11:00 +33°C° 0 mm 3 mps 756 mmHg 66%
    12:00 +34°C° 0 mm 3 mps 755 mmHg 64%
    13:00 +34°C° 0 mm 3 mps 754 mmHg 62%
    14:00 +35°C° 0 mm 3 mps 753 mmHg 59%
    15:00 +35°C° 0 mm 2 mps 753 mmHg 62%
    16:00 +34°C° 0 mm 2 mps 752 mmHg 65%
    17:00 +34°C° 0 mm 2 mps 752 mmHg 67%
    18:00 +31°C° 0.2 mm 1 mps 752 mmHg 72%
    19:00 +30°C° 0.2 mm 1 mps 753 mmHg 78%
    20:00 +26°C° 0.2 mm 0 mps 753 mmHg 83%
    21:00 +28°C° 0.7 mm 1 mps 754 mmHg 85%
    22:00 +27°C° 0.7 mm 1 mps 754 mmHg 87%
    23:00 +27°C° 0.7 mm 1 mps 755 mmHg 90%
    Mostrar más